Overview Statistics Trail Chart Weather Telemetry Raw packets
 

This is the latest recevied weather packets stored in our database for station/object AI5BL. If no packets are shown the sender has not sent any weather packets the latest 10 day(s).

<< 103 104 105 106 107 108 109 >>
Time Temp. Humidity Pressure Rain* Wind** Luminosity Snow
1787870883 27.22° C 86% 1016.4 hPa 0 mm - 53 W/m² -
1787870577 27.22° C 85% 1016.5 hPa 0 mm - 68 W/m² -
1787870274 27.22° C 90% 1016.5 hPa 0 mm - 80 W/m² -
1787869974 27.22° C 88% 1016.6 hPa 0 mm - 92 W/m² -
1787869668 27.78° C 86% 1016.5 hPa 0 mm - 99 W/m² -
1787869368 27.78° C 85% 1016.5 hPa 0 mm - 102 W/m² -
1787869068 27.78° C 82% 1016.5 hPa 0 mm - 106 W/m² -
1787868766 27.78° C 83% 1016.4 hPa 0 mm - 109 W/m² -
1787868465 27.22° C 84% 1016.5 hPa 0 mm - 118 W/m² -
1787868164 27.78° C 85% 1016.5 hPa 0 mm - 124 W/m² -
1787867860 27.22° C 84% 1016.5 hPa 0 mm - 127 W/m² -
1787867556 27.78° C 85% 1016.5 hPa 0 mm - 123 W/m² -
1787867255 27.78° C 85% 1016.6 hPa 0 mm - 124 W/m² -
1787866951 27.78° C 86% 1016.6 hPa 0 mm - 118 W/m² -
1787866646 27.78° C 85% 1016.6 hPa 0 mm - 125 W/m² -
1787866344 27.78° C 83% 1016.5 hPa 0 mm - 141 W/m² -
1787866039 27.78° C 82% 1016.5 hPa 0 mm - 153 W/m² -
1787865734 27.22° C 81% 1016.7 hPa 0 mm - 163 W/m² -
1787865430 27.22° C 84% 1016.5 hPa 0 mm - 162 W/m² -
1787865124 27.22° C 82% 1016.7 hPa 0 mm - 177 W/m² -
1787864821 27.22° C 82% 1016.7 hPa 0 mm - 172 W/m² -
1787864521 27.22° C 83% 1016.8 hPa 0 mm - 174 W/m² -
1787864215 27.22° C 79% 1016.7 hPa 0 mm - 172 W/m² -
1787863909 27.22° C 84% 1016.7 hPa 0 mm - 159 W/m² -
1787863608 27.22° C 85% 1016.7 hPa 0 mm - 151 W/m² -

* Rain latest hour (hover to see other rain measurements)
** Current wind speed in m/s (hover to see current wind gust speed)